Vertical_Velocity
8 7 3 -1 -2 -7 1 4 2 1 -2 -0 -4 -1 -0 1 -0 -0 1 -0 -1 -1
1 -2 2 3 4 -2 1 -2 -1 -1 -1 -2 0 -1 0 -0 1 -1 -0 -1 1 -1
2 -0 -2 -0 -0 -5 -2 -2 -1 0 -2 3 1 1 2 -0 -1 -1 -0 -1 -0 0
-1 -0 -5 0 -1 -0 1 1 2 1 2 4 -2 1 1 0 -0 -2 -1 -1 -0 -0
-1 1 -0 1 -0 4 2 2 -0 -0 -1 1 -3 -1 -0 -0 1 -2 -1 -3 -1 -1
-0 0 4 3 0 -2 -1 -1 0 -2 -0 -0 -1 -0 0 -2 -1 -0 -0 -2 -1 -1
1 0 1 1 -1 -3 -3 -1 2 1 -0 -1 0 0 0 1 2 1 -0 0 1 0
-0 -0 -2 0 4 2 1 1 1 -0 -0 -1 0 1 4 2 -1 -1 -2 -2 -2 -1
2 2 0 -1 -0 1 2 2 -0 1 1 1 3 2 -1 -0 1 -1 -1 -2 -1 1
4 2 0 0 -0 -1 -1 1 2 2 2 -1 -0 1 0 1 0 1 -1 -2 -3 -3
-1 0 1 1 0 1 0 0 0 1 1 1 -1 -1 -2 -1 -2 -1 -1 -2 0 2
-2 -3 -3 -2 -0 1 2 2 1 -0 -0 -1 -3 -0 -2 -2 -3 -1 -0 -1 1 0
1 2 3 3 3 3 1 -1 -1 -2 -1 0 -2 -5 -1 -5 -4 -0 -2 -0 5 2
1 0 -0 -0 1 1 2 2 2 3 -0 1 -3 -0 -5 -4 -4 -2 -0 4 3 1
Height
5763 5765 5767 5767 5766 5766 5766 5764 5761 5759 5759 5756 5754 5750 5748 5745 5742 5737 5734 5730 5726 5722
5754 5754 5757 5758 5758 5758 5756 5754 5751 5749 5747 5745 5741 5738 5736 5733 5730 5725 5719 5715 5711 5708
5747 5747 5749 5749 5747 5748 5746 5743 5740 5738 5735 5732 5728 5726 5723 5720 5716 5711 5706 5701 5696 5693
5739 5739 5740 5738 5738 5738 5735 5732 5729 5726 5724 5721 5717 5712 5709 5706 5701 5696 5691 5686 5681 5677
5731 5731 5731 5730 5728 5726 5723 5720 5718 5715 5713 5708 5703 5699 5696 5691 5687 5682 5676 5672 5666 5661
5723 5721 5720 5719 5717 5713 5711 5708 5705 5703 5698 5693 5689 5685 5682 5676 5671 5665 5659 5653 5648 5642
5712 5710 5709 5707 5704 5702 5699 5694 5692 5688 5683 5678 5674 5670 5665 5659 5653 5647 5641 5636 5631 5625
5702 5699 5698 5694 5691 5689 5685 5682 5678 5673 5668 5663 5658 5653 5647 5640 5634 5629 5623 5617 5612 5605
5691 5688 5686 5683 5680 5676 5671 5667 5662 5657 5651 5646 5642 5637 5631 5624 5617 5610 5603 5596 5591 5586
5679 5676 5672 5669 5665 5660 5656 5652 5647 5642 5637 5631 5626 5619 5612 5605 5598 5591 5586 5580 5574 5568
5665 5661 5658 5654 5650 5645 5641 5636 5631 5625 5618 5610 5603 5596 5590 5584 5579 5573 5566 5561 5554 5548
5652 5648 5645 5641 5636 5631 5625 5618 5611 5604 5596 5588 5581 5575 5569 5564 5560 5554 5548 5542 5535 5528
5639 5634 5629 5623 5617 5611 5604 5597 5589 5582 5575 5568 5560 5554 5549 5544 5540 5536 5530 5523 5515 5508
5621 5616 5609 5603 5597 5590 5583 5575 5568 5561 5554 5548 5541 5535 5529 5523 5519 5514 5510 5505 5498 5490